SWR176 LSZH-WSSS

Flight info

Callsign SWR176
Flight time N/A
Altitude 33000
Route DEGES Z2 UMVEG DCT DIMLO DCT TEGRI DCT VEVIN DCT DINRO DCT UDROS DCT ABSAX DCT KARDE DCT REBLO/N0480F350 M11 RODAR A909 ABDAN A846 RANAH L750 ZB G202 RK P628 NIKOT/N0489F370 P628 IBANI L510 AGEGA/N0480F390 L510 GIVAL P628 VPL Y503 RINBA Y507 MAKNA Y511 TOPOR A464 ARAMA DCT TEBUN TEBUN1A
Aircraft B77W/H-SDE1E2E3FGHIJ2J3J4J5M1RWXY/LB1D1

Departure

Time 2026-05-03 20:58
Airport Zürich Airport (LSZH)

Arrival

Time N/A
Airport Singapore Changi Airport (WSSS)
Time Latitude Longitude Altitude Speed Heading
2026-05-03 20:15 47.46030 8.55735 1407 ft 0 kts
2026-05-03 20:49 47.46018 8.55732 1413 ft 1 kts 30°
2026-05-03 20:50 47.46002 8.55718 1407 ft 3 kts 31°
2026-05-03 20:50 47.45986 8.55701 1411 ft 3 kts 59°
2026-05-03 20:50 47.45978 8.55675 1416 ft 3 kts 68°
2026-05-03 20:50 47.45969 8.55649 1408 ft 3 kts 45°
2026-05-03 20:51 47.45955 8.55633 1406 ft 3 kts 30°
2026-05-03 20:51 47.45939 8.55619 1407 ft 3 kts 45°
2026-05-03 20:51 47.45938 8.55617 1412 ft 0 kts 49°
2026-05-03 20:51 47.45938 8.55618 1408 ft 1 kts 49°
2026-05-03 20:52 47.45948 8.55661 1412 ft 0 kts 84°
2026-05-03 20:54 47.45949 8.55677 1407 ft 3 kts 84°
2026-05-03 20:54 47.45945 8.55778 1413 ft 7 kts 95°
2026-05-03 20:54 47.45940 8.55852 1410 ft 9 kts 96°
2026-05-03 20:55 47.45932 8.55962 1411 ft 11 kts 96°
2026-05-03 20:55 47.45924 8.56079 1416 ft 11 kts 96°
2026-05-03 20:55 47.45916 8.56196 1415 ft 11 kts 96°
2026-05-03 20:55 47.45939 8.56301 1423 ft 11 kts 33°
2026-05-03 20:56 47.46017 8.56324 1420 ft 12 kts
2026-05-03 20:56 47.46092 8.56360 1420 ft 12 kts 37°
2026-05-03 20:56 47.46132 8.56412 1415 ft 4 kts 23°
2026-05-03 20:56 47.46162 8.56400 1415 ft 5 kts 334°
2026-05-03 20:57 47.46178 8.56381 1418 ft 0 kts 317°
2026-05-03 20:57 47.46215 8.56329 1417 ft 23 kts 317°
2026-05-03 20:58 47.46537 8.55892 1408 ft 102 kts 317°
2026-05-03 20:58 47.47239 8.54931 1403 ft 171 kts 317°
2026-05-03 20:58 47.48222 8.53577 1619 ft 199 kts 316°
2026-05-03 20:58 47.49216 8.52223 2293 ft 199 kts 321°
2026-05-03 20:59 47.50384 8.51096 2884 ft 202 kts 330°
2026-05-03 20:59 47.51633 8.50090 3394 ft 207 kts 328°
2026-05-03 20:59 47.52729 8.48780 3892 ft 201 kts 305°
2026-05-03 20:59 47.53350 8.46976 4441 ft 194 kts 282°
2026-05-03 21:00 47.53440 8.44973 4797 ft 204 kts 267°
2026-05-03 21:00 47.53386 8.44259 4868 ft 207 kts 264°
2026-05-03 21:00 47.52507 8.40828 5490 ft 222 kts 246°
2026-05-03 21:00 47.52032 8.39460 5902 ft 221 kts 247°
2026-05-03 21:01 47.51124 8.37531 6097 ft 245 kts 220°
2026-05-03 21:01 47.49468 8.36597 6290 ft 271 kts 184°
2026-05-03 21:01 47.47580 8.37128 6735 ft 284 kts 156°
2026-05-03 21:01 47.45970 8.38839 7336 ft 288 kts 129°
2026-05-03 21:02 47.45067 8.41463 7986 ft 291 kts 98°
2026-05-03 21:02 47.45174 8.44409 8615 ft 288 kts 76°
2026-05-03 21:02 47.45533 8.47358 9147 ft 296 kts 83°
2026-05-03 21:02 47.45671 8.50394 9874 ft 297 kts 88°
2026-05-03 21:03 47.45707 8.53457 10542 ft 302 kts 90°
2026-05-03 21:03 47.45755 8.56613 10774 ft 323 kts 88°
2026-05-03 21:03 47.45790 8.59513 10931 ft 339 kts 95°
2026-05-03 21:03 47.45555 8.63082 11145 ft 360 kts 99°
2026-05-03 21:04 47.45204 8.66840 11561 ft 375 kts 100°
2026-05-03 21:04 47.44856 8.70645 12205 ft 382 kts 100°
2026-05-03 21:04 47.44525 8.74613 12973 ft 387 kts 99°
2026-05-03 21:04 47.44219 8.78595 13682 ft 393 kts 98°
2026-05-03 21:05 47.43928 8.82648 14368 ft 399 kts 98°
2026-05-03 21:05 47.43643 8.86744 15050 ft 404 kts 98°
2026-05-03 21:05 47.43361 8.90858 15704 ft 410 kts 98°
2026-05-03 21:05 47.43070 8.95071 16372 ft 415 kts 98°
2026-05-03 21:06 47.42775 8.99350 17007 ft 420 kts 98°
2026-05-03 21:06 47.42471 9.03672 17633 ft 426 kts 98°
2026-05-03 21:06 47.42166 9.08042 18236 ft 431 kts 97°
2026-05-03 21:06 47.41852 9.12472 18844 ft 435 kts 98°
2026-05-03 21:07 47.41794 9.13284 18950 ft 436 kts 98°
2026-05-03 21:07 47.41611 9.16575 19439 ft 438 kts 94°
2026-05-03 21:07 47.41670 9.21096 20061 ft 443 kts 87°
2026-05-03 21:07 47.42048 9.25627 20676 ft 447 kts 80°
2026-05-03 21:08 47.42720 9.30139 21273 ft 450 kts 78°
2026-05-03 21:08 47.43439 9.34660 21843 ft 454 kts 78°
2026-05-03 21:08 47.44157 9.39214 22417 ft 457 kts 78°
2026-05-03 21:08 47.44866 9.43808 22936 ft 460 kts 78°
2026-05-03 21:09 47.45566 9.48436 23478 ft 462 kts 78°
2026-05-03 21:09 47.46260 9.53089 23993 ft 465 kts 78°
2026-05-03 21:09 47.46839 9.57798 24480 ft 467 kts 84°
2026-05-03 21:09 47.47076 9.62595 24936 ft 470 kts 90°
2026-05-03 21:10 47.46985 9.67505 25358 ft 472 kts 96°
2026-05-03 21:10 47.46678 9.72291 25762 ft 476 kts 96°
2026-05-03 21:10 47.46374 9.77173 26193 ft 479 kts 96°
2026-05-03 21:10 47.46082 9.82100 26614 ft 481 kts 96°
2026-05-03 21:11 47.45799 9.87041 27017 ft 484 kts 96°
2026-05-03 21:11 47.45518 9.92009 27417 ft 486 kts 96°
2026-05-03 21:11 47.45236 9.97000 27788 ft 489 kts 96°
2026-05-03 21:11 47.44949 10.02025 28154 ft 492 kts 96°
2026-05-03 21:12 47.44658 10.07071 28504 ft 494 kts 96°
2026-05-03 21:12 47.44363 10.12137 28827 ft 496 kts 96°
2026-05-03 21:12 47.44059 10.17224 29143 ft 498 kts 97°
2026-05-03 21:12 47.43556 10.22291 29450 ft 499 kts 103°
2026-05-03 21:13 47.42859 10.27304 29825 ft 498 kts 103°
2026-05-03 21:13 47.42147 10.32302 30239 ft 497 kts 103°
2026-05-03 21:13 47.41448 10.37302 30657 ft 495 kts 103°
2026-05-03 21:13 47.40772 10.42285 31025 ft 495 kts 103°
2026-05-03 21:14 47.40108 10.47201 31402 ft 494 kts 102°
2026-05-03 21:14 47.39430 10.52166 31773 ft 493 kts 103°
2026-05-03 21:14 47.38746 10.57107 32109 ft 492 kts 103°
2026-05-03 21:14 47.38058 10.62056 32417 ft 492 kts 103°
2026-05-03 21:15 47.37370 10.67012 32712 ft 492 kts 103°
2026-05-03 21:15 47.36683 10.71941 32980 ft 493 kts 103°
2026-05-03 21:15 47.35294 10.81903 33054 ft 496 kts 103°
2026-05-03 21:16 47.33897 10.91813 33039 ft 491 kts 103°
2026-05-03 21:16 47.32502 11.01645 33049 ft 489 kts 103°
2026-05-03 21:17 47.31336 11.09821 33033 ft 490 kts 103°
2026-05-03 21:17 47.29689 11.21293 33026 ft 490 kts 103°
2026-05-03 21:18 47.28278 11.31063 33026 ft 491 kts 103°
2026-05-03 21:18 47.26848 11.40907 33027 ft 491 kts 103°
2026-05-03 21:19 47.25413 11.50753 33025 ft 491 kts 102°
2026-05-03 21:19 47.24294 11.60675 33030 ft 492 kts 99°
2026-05-03 21:20 47.23264 11.70640 33032 ft 492 kts 99°
2026-05-03 21:20 47.22198 11.80581 33046 ft 492 kts 99°
2026-05-03 21:21 47.21112 11.90519 33060 ft 491 kts 99°
2026-05-03 21:21 47.20116 12.00405 33092 ft 491 kts 98°
2026-05-03 21:22 47.19169 12.10362 33100 ft 492 kts 98°
2026-05-03 21:22 47.18206 12.20344 33113 ft 493 kts 98°
2026-05-03 21:23 47.17217 12.30339 33110 ft 494 kts 98°
2026-05-03 21:23 47.16214 12.40327 33100 ft 494 kts 98°
2026-05-03 21:24 47.15202 12.50309 33103 ft 494 kts 98°
2026-05-03 21:24 47.14183 12.60281 33107 ft 494 kts 98°
2026-05-03 21:25 47.13156 12.70257 33097 ft 493 kts 98°
2026-05-03 21:25 47.12127 12.80196 33088 ft 492 kts 98°
2026-05-03 21:26 47.11093 12.90047 33089 ft 491 kts 98°
2026-05-03 21:26 47.10040 12.99964 33077 ft 491 kts 98°
2026-05-03 21:27 47.08984 13.09883 33071 ft 492 kts 98°
2026-05-03 21:27 47.07921 13.19792 33067 ft 492 kts 98°
2026-05-03 21:28 47.06853 13.29650 33058 ft 492 kts 98°
2026-05-03 21:28 47.05767 13.39570 33050 ft 492 kts 98°
2026-05-03 21:29 47.04674 13.49471 33052 ft 491 kts 98°
2026-05-03 21:29 47.03576 13.59356 33042 ft 491 kts 98°
2026-05-03 21:30 47.02468 13.69224 33066 ft 491 kts 98°
2026-05-03 21:30 47.01354 13.79092 33063 ft 491 kts 98°
2026-05-03 21:31 47.00233 13.88947 33072 ft 490 kts 98°
2026-05-03 21:31 46.99103 13.98804 33073 ft 490 kts 98°
2026-05-03 21:32 46.97964 14.08648 33080 ft 490 kts 98°
2026-05-03 21:32 46.96815 14.18493 33082 ft 489 kts 98°
2026-05-03 21:33 46.95662 14.28303 33083 ft 489 kts 98°
2026-05-03 21:33 46.94506 14.38068 33079 ft 490 kts 98°
2026-05-03 21:34 46.93336 14.47889 33088 ft 490 kts 98°
2026-05-03 21:34 46.92155 14.57702 33082 ft 490 kts 98°
2026-05-03 21:35 46.90966 14.67520 33094 ft 490 kts 98°
2026-05-03 21:35 46.89769 14.77328 33089 ft 489 kts 98°
2026-05-03 21:36 46.88566 14.87117 33092 ft 489 kts 98°
2026-05-03 21:36 46.87355 14.96902 33093 ft 488 kts 98°
2026-05-03 21:37 46.86145 15.06607 33091 ft 489 kts 98°
2026-05-03 21:37 46.84917 15.16376 33086 ft 489 kts 98°
2026-05-03 21:38 46.83681 15.26138 33080 ft 489 kts 98°
2026-05-03 21:38 46.82436 15.35901 33082 ft 488 kts 98°
2026-05-03 21:39 46.81186 15.45644 33081 ft 488 kts 98°
2026-05-03 21:39 46.79925 15.55391 33086 ft 488 kts 98°
2026-05-03 21:40 46.78658 15.65116 33081 ft 488 kts 98°
2026-05-03 21:40 46.77383 15.74853 33087 ft 488 kts 98°
2026-05-03 21:41 46.76317 15.82936 33092 ft 488 kts 98°
2026-05-03 21:41 46.74816 15.94234 33094 ft 488 kts 98°
2026-05-03 21:42 46.73519 16.03940 33092 ft 488 kts 98°
2026-05-03 21:42 46.72430 16.12015 33097 ft 487 kts 98°
2026-05-03 21:43 46.71116 16.21717 33103 ft 487 kts 98°
2026-05-03 21:43 46.69797 16.31398 33096 ft 487 kts 98°